Time,TemperatureF,DewpointF,PressureIn,WindDirection,WindDirectionDegrees,WindSpeedMPH,WindSpeedGustMPH,Humidity,HourlyPrecipIn,Conditions,Clouds,dailyrainin,SoftwareType,DateUTC
2013-04-17 00:01:00,43.0,22.0,29.93,NW,321,9.0,15.0,43,0.00,,,0.00,,2013-04-17 07:01:00,
2013-04-17 00:11:00,43.0,22.0,29.93,NW,321,9.0,15.0,43,0.00,,,0.00,,2013-04-17 07:11:00,
2013-04-17 00:21:00,43.0,23.0,29.93,NW,313,11.0,17.0,44,0.00,,,0.00,,2013-04-17 07:21:00,
2013-04-17 00:31:00,43.0,23.0,29.96,NW,311,12.0,17.0,45,0.00,,,0.00,,2013-04-17 07:31:00,
2013-04-17 00:42:00,43.0,23.0,29.96,NW,311,12.0,17.0,45,0.00,,,0.00,,2013-04-17 07:42:00,
2013-04-17 00:52:00,43.0,24.0,29.97,NW,306,14.0,20.0,46,0.00,,,0.00,,2013-04-17 07:52:00,
2013-04-17 01:01:00,43.0,24.0,29.98,NW,326,7.0,24.0,47,0.00,,,0.00,,2013-04-17 08:01:00,
2013-04-17 01:11:00,43.0,24.0,29.98,NW,326,7.0,24.0,47,0.00,,,0.00,,2013-04-17 08:11:00,
2013-04-17 01:21:00,42.0,24.0,29.98,NNW,344,2.0,6.0,48,0.00,,,0.00,,2013-04-17 08:21:00,
2013-04-17 01:32:00,41.0,23.0,29.96,North,5,7.0,9.0,48,0.00,,,0.00,,2013-04-17 08:32:00,
2013-04-17 01:41:00,41.0,23.0,29.96,North,5,7.0,9.0,48,0.00,,,0.00,,2013-04-17 08:41:00,
2013-04-17 01:52:00,41.0,23.0,29.96,NNE,24,3.0,7.0,48,0.00,,,0.00,,2013-04-17 08:52:00,
2013-04-17 02:01:00,41.0,23.0,29.96,WNW,302,4.0,10.0,49,0.00,,,0.00,,2013-04-17 09:01:00,
2013-04-17 02:11:00,41.0,23.0,29.96,WNW,302,4.0,10.0,49,0.00,,,0.00,,2013-04-17 09:11:00,
2013-04-17 02:22:00,40.0,22.0,29.97,NNE,15,1.0,6.0,49,0.00,,,0.00,,2013-04-17 09:22:00,
2013-04-17 02:32:00,40.0,20.0,29.98,WNW,288,7.0,11.0,45,0.00,,,0.00,,2013-04-17 09:32:00,
2013-04-17 02:42:00,40.0,20.0,29.98,WNW,288,7.0,11.0,45,0.00,,,0.00,,2013-04-17 09:42:00,
2013-04-17 02:52:00,40.0,20.0,29.99,West,265,4.0,10.0,45,0.00,,,0.00,,2013-04-17 09:52:00,
2013-04-17 03:02:00,39.0,19.0,29.97,WNW,283,6.0,10.0,45,0.00,,,0.00,,2013-04-17 10:02:00,
2013-04-17 03:12:00,39.0,19.0,29.97,WNW,283,6.0,10.0,45,0.00,,,0.00,,2013-04-17 10:12:00,
2013-04-17 03:22:00,39.0,19.0,29.97,West,269,6.0,11.0,44,0.00,,,0.00,,2013-04-17 10:22:00,
2013-04-17 03:32:00,39.0,19.0,29.99,West,267,8.0,11.0,44,0.00,,,0.00,,2013-04-17 10:32:00,
2013-04-17 03:42:00,39.0,19.0,29.99,West,267,8.0,11.0,44,0.00,,,0.00,,2013-04-17 10:42:00,
2013-04-17 03:52:00,38.0,18.0,29.97,WSW,258,8.0,11.0,44,0.00,,,0.00,,2013-04-17 10:52:00,
2013-04-17 04:02:00,38.0,18.0,29.97,WSW,248,9.0,14.0,44,0.00,,,0.00,,2013-04-17 11:02:00,
2013-04-17 04:11:00,38.0,18.0,29.97,WSW,248,9.0,14.0,44,0.00,,,0.00,,2013-04-17 11:11:00,
2013-04-17 04:21:00,38.0,19.0,29.96,WNW,288,10.0,15.0,45,0.00,,,0.00,,2013-04-17 11:21:00,
2013-04-17 04:31:00,38.0,19.0,29.96,West,264,9.0,17.0,46,0.00,,,0.00,,2013-04-17 11:31:00,
2013-04-17 04:42:00,38.0,19.0,29.96,West,264,9.0,17.0,46,0.00,,,0.00,,2013-04-17 11:42:00,
2013-04-17 04:52:00,38.0,19.0,29.97,West,281,12.0,20.0,45,0.00,,,0.00,,2013-04-17 11:52:00,
2013-04-17 05:02:00,38.0,19.0,29.97,West,270,8.0,17.0,46,0.00,,,0.00,,2013-04-17 12:02:00,
2013-04-17 05:12:00,38.0,19.0,29.97,West,270,8.0,17.0,46,0.00,,,0.00,,2013-04-17 12:12:00,
2013-04-17 05:22:00,38.0,19.0,29.98,West,281,11.0,16.0,45,0.00,,,0.00,,2013-04-17 12:22:00,
2013-04-17 05:32:00,38.0,19.0,29.98,West,261,11.0,16.0,45,0.00,,,0.00,,2013-04-17 12:32:00,
2013-04-17 05:42:00,38.0,19.0,29.98,West,261,11.0,16.0,45,0.00,,,0.00,,2013-04-17 12:42:00,
2013-04-17 05:52:00,38.0,19.0,29.98,WNW,296,12.0,18.0,45,0.00,,,0.00,,2013-04-17 12:52:00,
2013-04-17 06:01:00,37.0,19.0,29.98,West,275,10.0,15.0,47,0.00,,,0.00,,2013-04-17 13:01:00,
2013-04-17 06:11:00,37.0,19.0,29.98,West,275,10.0,15.0,47,0.00,,,0.00,,2013-04-17 13:11:00,
2013-04-17 06:22:00,37.0,19.0,29.98,WNW,295,11.0,20.0,47,0.00,,,0.00,,2013-04-17 13:22:00,
2013-04-17 06:32:00,37.0,18.0,30.00,West,277,12.0,22.0,46,0.00,,,0.00,,2013-04-17 13:32:00,
2013-04-17 06:41:00,37.0,18.0,30.00,West,277,12.0,22.0,46,0.00,,,0.00,,2013-04-17 13:41:00,
2013-04-17 06:52:00,38.0,19.0,30.01,West,276,14.0,20.0,46,0.00,,,0.00,,2013-04-17 13:52:00,
2013-04-17 07:01:00,37.0,19.0,30.01,WNW,298,16.0,22.0,47,0.00,,,0.00,,2013-04-17 14:01:00,
2013-04-17 07:11:00,37.0,19.0,30.01,WNW,298,16.0,22.0,47,0.00,,,0.00,,2013-04-17 14:11:00,
2013-04-17 07:21:00,38.0,19.0,30.03,WNW,288,12.0,21.0,46,0.00,,,0.00,,2013-04-17 14:21:00,
2013-04-17 07:32:00,38.0,19.0,30.03,WSW,255,15.0,19.0,45,0.00,,,0.00,,2013-04-17 14:32:00,
2013-04-17 07:41:00,39.0,19.0,30.04,West,265,14.0,21.0,44,0.00,,,0.00,,2013-04-17 14:41:00,
2013-04-17 07:52:00,39.0,19.0,30.04,West,265,14.0,21.0,44,0.00,,,0.00,,2013-04-17 14:52:00,
2013-04-17 08:02:00,39.0,19.0,30.04,West,265,14.0,21.0,44,0.00,,,0.00,,2013-04-17 15:02:00,
2013-04-17 08:11:00,41.0,19.0,30.04,West,266,14.0,21.0,41,0.00,,,0.00,,2013-04-17 15:11:00,
2013-04-17 08:21:00,41.0,19.0,30.04,West,266,14.0,21.0,41,0.00,,,0.00,,2013-04-17 15:21:00,
2013-04-17 08:33:00,41.0,19.0,30.04,West,266,14.0,21.0,41,0.00,,,0.00,,2013-04-17 15:33:00,
2013-04-17 08:43:00,41.0,19.0,30.04,West,266,14.0,21.0,41,0.00,,,0.00,,2013-04-17 15:43:00,
2013-04-17 08:53:00,43.0,19.0,30.07,WSW,257,13.0,20.0,38,0.00,,,0.00,,2013-04-17 15:53:00,
2013-04-17 09:03:00,44.0,19.0,30.07,NW,314,10.0,19.0,37,0.00,,,0.00,,2013-04-17 16:03:00,
2013-04-17 09:12:00,45.0,18.0,30.06,WNW,292,16.0,23.0,34,0.00,,,0.00,,2013-04-17 16:12:00,
2013-04-17 09:22:00,45.0,18.0,30.06,WNW,292,16.0,23.0,34,0.00,,,0.00,,2013-04-17 16:22:00,
2013-04-17 09:32:00,46.0,19.0,30.06,West,272,9.0,16.0,33,0.00,,,0.00,,2013-04-17 16:32:00,
2013-04-17 09:41:00,46.0,19.0,30.06,West,272,9.0,16.0,33,0.00,,,0.00,,2013-04-17 16:41:00,
2013-04-17 09:52:00,47.0,18.0,30.06,NW,309,7.0,14.0,31,0.00,,,0.00,,2013-04-17 16:52:00,
2013-04-17 10:02:00,49.0,17.0,30.06,NW,325,8.0,14.0,28,0.00,,,0.00,,2013-04-17 17:02:00,
2013-04-17 10:11:00,49.0,17.0,30.06,NW,325,8.0,14.0,28,0.00,,,0.00,,2013-04-17 17:11:00,
2013-04-17 10:22:00,49.0,17.0,30.06,NW,325,8.0,14.0,28,0.00,,,0.00,,2013-04-17 17:22:00,
2013-04-17 10:32:00,50.0,16.0,30.07,NNW,338,4.0,14.0,26,0.00,,,0.00,,2013-04-17 17:32:00,
2013-04-17 10:42:00,50.0,16.0,30.07,NNW,338,4.0,14.0,26,0.00,,,0.00,,2013-04-17 17:42:00,
2013-04-17 10:52:00,50.0,16.0,30.07,NNW,338,4.0,14.0,26,0.00,,,0.00,,2013-04-17 17:52:00,
2013-04-17 11:02:00,54.0,19.0,30.08,North,5,6.0,19.0,25,0.00,,,0.00,,2013-04-17 18:02:00,
2013-04-17 11:11:00,54.0,19.0,30.08,North,5,6.0,19.0,25,0.00,,,0.00,,2013-04-17 18:11:00,
2013-04-17 11:22:00,53.0,14.0,30.09,NE,55,11.0,19.0,21,0.00,,,0.00,,2013-04-17 18:22:00,
2013-04-17 11:32:00,53.0,14.0,30.09,North,360,4.0,16.0,21,0.00,,,0.00,,2013-04-17 18:32:00,
2013-04-17 11:42:00,53.0,14.0,30.09,North,360,4.0,16.0,21,0.00,,,0.00,,2013-04-17 18:42:00,
2013-04-17 11:52:00,54.0,15.0,30.08,NNE,22,10.0,16.0,21,0.00,,,0.00,,2013-04-17 18:52:00,
2013-04-17 12:02:00,54.0,15.0,30.08,NNE,13,6.0,17.0,21,0.00,,,0.00,,2013-04-17 19:02:00,
2013-04-17 12:11:00,54.0,15.0,30.08,NNE,13,6.0,17.0,21,0.00,,,0.00,,2013-04-17 19:11:00,
2013-04-17 12:21:00,55.0,17.0,30.07,NNE,20,8.0,16.0,22,0.00,,,0.00,,2013-04-17 19:21:00,
2013-04-17 12:31:00,56.0,16.0,30.06,NW,314,10.0,13.0,20,0.00,,,0.00,,2013-04-17 19:31:00,
2013-04-17 12:42:00,55.0,16.0,30.07,NNE,32,4.0,14.0,21,0.00,,,0.00,,2013-04-17 19:42:00,
2013-04-17 12:52:00,55.0,16.0,30.07,NNE,32,4.0,14.0,21,0.00,,,0.00,,2013-04-17 19:52:00,
2013-04-17 13:01:00,56.0,17.0,30.07,North,5,8.0,18.0,21,0.00,,,0.00,,2013-04-17 20:01:00,
2013-04-17 13:12:00,56.0,17.0,30.07,North,5,8.0,18.0,21,0.00,,,0.00,,2013-04-17 20:12:00,
2013-04-17 13:22:00,56.0,17.0,30.06,NW,306,13.0,17.0,21,0.00,,,0.00,,2013-04-17 20:22:00,
2013-04-17 13:32:00,56.0,17.0,30.06,NW,306,13.0,17.0,21,0.00,,,0.00,,2013-04-17 20:32:00,
2013-04-17 13:42:00,56.0,17.0,30.06,NW,306,13.0,17.0,21,0.00,,,0.00,,2013-04-17 20:42:00,
2013-04-17 13:52:00,56.0,16.0,30.07,NW,315,4.0,23.0,20,0.00,,,0.00,,2013-04-17 20:52:00,
2013-04-17 14:02:00,55.0,15.0,30.05,North,5,8.0,23.0,20,0.00,,,0.00,,2013-04-17 21:02:00,
2013-04-17 14:12:00,55.0,15.0,30.05,North,5,8.0,23.0,20,0.00,,,0.00,,2013-04-17 21:12:00,
2013-04-17 14:22:00,56.0,16.0,30.07,NNW,342,11.0,22.0,20,0.00,,,0.00,,2013-04-17 21:22:00,
2013-04-17 14:32:00,56.0,16.0,30.05,NW,325,16.0,22.0,20,0.00,,,0.00,,2013-04-17 21:32:00,
2013-04-17 14:42:00,55.0,14.0,30.05,North,5,8.0,23.0,19,0.00,,,0.00,,2013-04-17 21:42:00,
2013-04-17 14:53:00,55.0,14.0,30.05,North,5,8.0,23.0,19,0.00,,,0.00,,2013-04-17 21:53:00,
2013-04-17 15:02:00,56.0,14.0,30.07,NW,304,7.0,17.0,19,0.00,,,0.00,,2013-04-17 22:02:00,
2013-04-17 15:12:00,56.0,14.0,30.07,NW,304,7.0,17.0,19,0.00,,,0.00,,2013-04-17 22:12:00,
2013-04-17 15:22:00,56.0,16.0,30.04,WNW,300,16.0,24.0,20,0.00,,,0.00,,2013-04-17 22:22:00,
2013-04-17 15:32:00,56.0,16.0,30.03,WNW,289,15.0,21.0,20,0.00,,,0.00,,2013-04-17 22:32:00,
2013-04-17 15:42:00,56.0,14.0,30.03,WNW,290,13.0,23.0,19,0.00,,,0.00,,2013-04-17 22:42:00,
2013-04-17 15:53:00,56.0,14.0,30.03,WNW,290,13.0,23.0,19,0.00,,,0.00,,2013-04-17 22:53:00,
2013-04-17 16:02:00,56.0,14.0,30.03,West,278,14.0,24.0,19,0.00,,,0.00,,2013-04-17 23:02:00,
2013-04-17 16:12:00,56.0,14.0,30.03,West,259,14.0,22.0,19,0.00,,,0.00,,2013-04-17 23:12:00,
2013-04-17 16:22:00,56.0,14.0,30.03,West,259,14.0,22.0,19,0.00,,,0.00,,2013-04-17 23:22:00,
2013-04-17 16:32:00,56.0,14.0,30.03,WSW,258,11.0,20.0,19,0.00,,,0.00,,2013-04-17 23:32:00,
2013-04-17 16:42:00,56.0,16.0,30.03,West,260,12.0,21.0,20,0.00,,,0.00,,2013-04-17 23:42:00,
2013-04-17 16:52:00,56.0,16.0,30.03,West,260,12.0,21.0,20,0.00,,,0.00,,2013-04-17 23:52:00,
2013-04-17 17:01:00,56.0,16.0,30.03,West,261,12.0,19.0,20,0.00,,,0.00,,2013-04-18 00:01:00,
2013-04-17 17:12:00,56.0,16.0,30.03,WNW,298,12.0,22.0,20,0.00,,,0.00,,2013-04-18 00:12:00,
2013-04-17 17:22:00,56.0,16.0,30.03,WNW,298,12.0,22.0,20,0.00,,,0.00,,2013-04-18 00:22:00,
2013-04-17 17:32:00,56.0,14.0,30.04,West,275,16.0,21.0,19,0.00,,,0.00,,2013-04-18 00:32:00,
2013-04-17 17:42:00,55.0,15.0,30.04,West,281,14.0,20.0,20,0.00,,,0.00,,2013-04-18 00:42:00,
2013-04-17 17:52:00,55.0,15.0,30.04,West,281,14.0,20.0,20,0.00,,,0.00,,2013-04-18 00:52:00,
2013-04-17 18:01:00,55.0,16.0,30.04,WNW,298,12.0,26.0,21,0.00,,,0.00,,2013-04-18 01:01:00,
2013-04-17 18:11:00,55.0,16.0,30.04,West,263,10.0,21.0,21,0.00,,,0.00,,2013-04-18 01:11:00,
2013-04-17 18:22:00,55.0,16.0,30.04,West,263,10.0,21.0,21,0.00,,,0.00,,2013-04-18 01:22:00,
2013-04-17 18:32:00,54.0,17.0,30.04,WNW,292,14.0,20.0,23,0.00,,,0.00,,2013-04-18 01:32:00,
2013-04-17 18:42:00,53.0,16.0,30.06,West,267,13.0,24.0,23,0.00,,,0.00,,2013-04-18 01:42:00,
2013-04-17 18:52:00,53.0,16.0,30.06,West,267,13.0,24.0,23,0.00,,,0.00,,2013-04-18 01:52:00,
2013-04-17 19:01:00,53.0,17.0,30.06,WNW,292,10.0,15.0,24,0.00,,,0.00,,2013-04-18 02:01:00,
2013-04-17 19:12:00,52.0,17.0,30.06,West,269,9.0,21.0,25,0.00,,,0.00,,2013-04-18 02:12:00,
2013-04-17 19:22:00,52.0,17.0,30.06,West,269,9.0,21.0,25,0.00,,,0.00,,2013-04-18 02:22:00,
2013-04-17 19:31:00,51.0,18.0,30.06,West,276,11.0,20.0,27,0.00,,,0.00,,2013-04-18 02:31:00,
2013-04-17 19:42:00,51.0,18.0,30.06,West,276,11.0,20.0,27,0.00,,,0.00,,2013-04-18 02:42:00,
2013-04-17 19:52:00,51.0,18.0,30.06,West,276,11.0,20.0,27,0.00,,,0.00,,2013-04-18 02:52:00,
2013-04-17 20:01:00,49.0,16.0,30.07,WNW,289,9.0,14.0,27,0.00,,,0.00,,2013-04-18 03:01:00,
2013-04-17 20:11:00,48.0,16.0,30.06,West,263,10.0,14.0,27,0.00,,,0.00,,2013-04-18 03:11:00,
2013-04-17 20:21:00,48.0,16.0,30.06,West,263,10.0,14.0,27,0.00,,,0.00,,2013-04-18 03:21:00,
2013-04-17 20:33:00,47.0,16.0,30.06,West,259,9.0,16.0,28,0.00,,,0.00,,2013-04-18 03:33:00,
2013-04-17 20:42:00,47.0,16.0,30.07,West,265,9.0,13.0,29,0.00,,,0.00,,2013-04-18 03:42:00,
2013-04-17 20:53:00,47.0,16.0,30.07,West,265,9.0,13.0,29,0.00,,,0.00,,2013-04-18 03:53:00,
2013-04-17 21:03:00,46.0,16.0,30.09,West,259,8.0,12.0,29,0.00,,,0.00,,2013-04-18 04:03:00,
2013-04-17 21:13:00,46.0,16.0,30.09,West,259,8.0,12.0,29,0.00,,,0.00,,2013-04-18 04:13:00,
2013-04-17 21:23:00,46.0,16.0,30.10,West,269,10.0,17.0,29,0.00,,,0.00,,2013-04-18 04:23:00,
2013-04-17 21:32:00,46.0,16.0,30.09,West,269,11.0,16.0,29,0.00,,,0.00,,2013-04-18 04:32:00,
2013-04-17 21:43:00,46.0,16.0,30.09,West,273,9.0,14.0,29,0.00,,,0.00,,2013-04-18 04:43:00,
2013-04-17 21:53:00,46.0,16.0,30.09,West,273,9.0,14.0,29,0.00,,,0.00,,2013-04-18 04:53:00,
2013-04-17 22:02:00,46.0,16.0,30.10,WSW,257,11.0,14.0,29,0.00,,,0.00,,2013-04-18 05:02:00,
2013-04-17 22:12:00,46.0,16.0,30.10,West,272,9.0,15.0,29,0.00,,,0.00,,2013-04-18 05:12:00,
2013-04-17 22:21:00,46.0,16.0,30.10,West,272,9.0,15.0,29,0.00,,,0.00,,2013-04-18 05:21:00,
2013-04-17 22:32:00,46.0,16.0,30.11,WNW,284,7.0,15.0,29,0.00,,,0.00,,2013-04-18 05:32:00,
2013-04-17 22:42:00,46.0,16.0,30.12,WSW,257,9.0,15.0,29,0.00,,,0.00,,2013-04-18 05:42:00,
2013-04-17 22:52:00,46.0,16.0,30.12,WSW,257,9.0,15.0,29,0.00,,,0.00,,2013-04-18 05:52:00,
2013-04-17 23:01:00,46.0,15.0,30.12,WNW,293,7.0,12.0,28,0.00,,,0.00,,2013-04-18 06:01:00,
2013-04-17 23:12:00,46.0,15.0,30.12,WNW,293,7.0,12.0,28,0.00,,,0.00,,2013-04-18 06:12:00,
2013-04-17 23:21:00,45.0,14.0,30.12,West,267,6.0,11.0,28,0.00,,,0.00,,2013-04-18 06:21:00,
2013-04-17 23:32:00,46.0,14.0,30.11,WNW,292,5.0,12.0,27,0.00,,,0.00,,2013-04-18 06:32:00,
2013-04-17 23:42:00,46.0,15.0,30.12,West,270,5.0,10.0,28,0.00,,,0.00,,2013-04-18 06:42:00,
2013-04-17 23:52:00,46.0,15.0,30.12,West,270,5.0,10.0,28,0.00,,,0.00,,2013-04-18 06:52:00,